Home   Weather   Yazd   Past weeks
Flag for Iran

Past Weather in Yazd, Iran — Yesterday and Last 2 Weeks

Now
81 °F

Passing clouds.


Feels Like: 79 °F
Forecast: 92 / 69 °F
Wind: 7 mph from West

Location: Yazd Airport

Current Time: May 25, 2019 at 1:38:24 am

Latest Report: May 25, 2019 at 12:30 am


Visibility: N/A

Pressure: 30.09 "Hg (26.19 "Hg at 1218m altitude)

Humidity: 23%

Dew Point: 39 °F

Location of YazdLocation

Past Weather in Yazd — Graph

°F

Yazd Temperature Yesterday

Maximum temperature yesterday: 93 °F (at 5:30 pm)
Minimum temperature yesterday: 64 °F (at 5:30 am)
Average temperature yesterday: 80 °F

High & Low Weather Summary for the Past Weeks

 TemperatureHumidityPressure
High93 °F (May 12, 3:30 pm)83% (May 21, 8:30 pm)30.15 "Hg (May 21, 8:30 pm)
Low59 °F (May 22, 4:30 am)9% (May 11, 6:30 pm)29.92 "Hg (May 10, 3:30 pm)
Average78 °F30%30.02 "Hg
* Reported May 10 12:30 am — May 25 12:30 am, Yazd. Weather by CustomWeather, © 2019

Note: Actual official high and low records may vary slightly from our data, if they occured in-between our weather recording intervals... More about our weather records

Advertising

Yazd Weather History for the Previous 24 Hours

Scroll right to see more
 ConditionsComfort  
Time TempWeatherWind HumidityBarometerVisibility
12:30 am
Sat, May 25
81 °FPassing clouds.7 mph23%30.09 "HgN/A
11:30 pm
Fri, May 24
81 °FPassing clouds.5 mph26%30.09 "HgN/A
10:30 pm82 °FPassing clouds.5 mph25%30.07 "HgN/A
9:30 pm84 °FPassing clouds.2 mph25%30.07 "HgN/A
9:00 pm84 °FPassing clouds.No wind25%30.07 "HgN/A
8:30 pm86 °FPassing clouds.5 mph24%30.04 "HgN/A
8:00 pm88 °FPassing clouds.5 mph22%30.04 "HgN/A
7:30 pm90 °FPassing clouds.7 mph20%30.04 "HgN/A
7:00 pm91 °FPassing clouds.2 mph18%30.01 "HgN/A
6:30 pm91 °FPassing clouds.5 mph18%30.01 "HgN/A
6:00 pm91 °FPassing clouds.7 mph18%30.01 "HgN/A
5:30 pm93 °FPassing clouds.2 mph17%30.01 "HgN/A
5:00 pm91 °FPassing clouds.5 mph18%30.01 "HgN/A
4:30 pm91 °FPassing clouds.5 mph18%30.01 "HgN/A
3:30 pm91 °FPassing clouds.5 mph18%30.04 "HgN/A
2:30 pm91 °FPassing clouds.7 mph18%30.04 "HgN/A
1:30 pm90 °FPassing clouds.7 mph20%30.07 "HgN/A
12:30 pm88 °FPassing clouds.7 mph21%30.09 "HgN/A
12:00 pm88 °FPassing clouds.5 mph21%30.09 "HgN/A
11:30 am84 °FPassing clouds.5 mph23%30.09 "HgN/A
11:00 am84 °FPassing clouds.2 mph25%30.09 "HgN/A
10:30 am81 °FPassing clouds.5 mph28%30.09 "HgN/A
10:00 am79 °FPassing clouds.5 mph32%30.09 "HgN/A
9:30 am77 °FSunny.5 mph32%30.09 "Hg10 mi
9:00 am75 °FSunny.5 mph34%30.09 "Hg10 mi
8:30 am72 °FSunny.5 mph38%30.09 "Hg10 mi
8:00 am68 °FSunny.5 mph43%30.07 "Hg10 mi
7:30 am68 °FSunny.2 mph43%30.07 "Hg10 mi
7:00 am66 °FSunny.5 mph46%30.07 "Hg10 mi
6:30 am64 °FSunny.5 mph46%30.07 "Hg10 mi
6:00 am64 °FClear.5 mph46%30.04 "Hg10 mi
5:30 am64 °FClear.5 mph49%30.04 "Hg10 mi
4:30 am66 °FClear.2 mph46%30.04 "Hg10 mi
3:30 am66 °FClear.2 mph49%30.04 "Hg10 mi
2:30 am68 °FClear.2 mph43%30.04 "Hg10 mi
1:30 am68 °FClear.2 mph46%30.04 "Hg10 mi
Weather by CustomWeather, © 2019

See weather overview